sat.trackr.live / text

‹ back to catalog

COSMOS 2432 (719)

NORAD 32276 · 2007-052B

PAYLOAD ACTIVE UNKNOWN

§ Identity

Operator
Country
CIS
Launch date
2007-10-26
Launch site
TYMSC
Launch vehicle
Mass (kg)
RCS (m²)
3.16

Purposes: nav

External: N2YO · Heavens-Above · Gunter

§ Orbital elements

Epoch: 2026-09-18T08:41:46.232160Z

Period
675.73 min
Inclination
65.5348°
Eccentricity
0.0008701
Mean motion
2.13103328 rev/d
Perigee alt
19,107.6 km
Apogee alt
19,152.0 km
Semi-major
25,507.9 km
B*
0.0000e+0
RAAN
312.9235°
Arg perigee
307.5470°
Mean anomaly
45.4378°
Rev number
14,706

§ Raw data

COSMOS 2432 (719)1 32276U 07052B   26261.36234065 -.00000042  00000+0  00000+0 0  99952 32276  65.5348 312.9235 0008701 307.5470  45.4378  2.13103328147062

JSON: /api/v1/satellites/32276 · /tle

For live sub-satellite position, see the globe view (requires WebGL).

§ Visibility from observer

Set your observer location to see the next 7 days of passes ≥ 10°. The values pass through the URL so the page stays shareable.

No JS? Fill the form by hand. The geolocation button needs JavaScript.